This is the latest recevied weather packets stored in our database for station/object F1AGU-13. If no packets are shown the sender has not sent any weather packets the latest 10 day(s).
| Time | Temp. | Humidity | Pressure | Rain* | Wind** | Luminosity | Snow |
|---|---|---|---|---|---|---|---|
| 1777734316 | 19.44° C | 56% | 1021 hPa | 0 mm | - | - | - |
| 1777733716 | 19.44° C | 55% | 1021 hPa | 0 mm | - | - | - |
| 1777733116 | 19.44° C | 56% | 1021.1 hPa | 0 mm | - | - | - |
| 1777732516 | 19.44° C | 53% | 1021.1 hPa | 0 mm | - | - | - |
| 1777731916 | 19.44° C | 54% | 1021.1 hPa | 0 mm | - | - | - |
| 1777731316 | 20° C | 52% | 1021.4 hPa | 0 mm | - | - | - |
| 1777730716 | 20° C | 49% | 1021.5 hPa | 0 mm | - | - | - |
| 1777730116 | 20° C | 53% | 1021.7 hPa | 0 mm | - | - | - |
| 1777729516 | 19.44° C | 56% | 1021.8 hPa | 0 mm | - | - | - |
| 1777728916 | 20° C | 52% | 1021.7 hPa | 0 mm | - | - | - |
| 1777728316 | 20° C | 55% | 1022.1 hPa | 0 mm | - | - | - |
| 1777727716 | 19.44° C | 54% | 1022 hPa | 0 mm | - | - | - |
| 1777727116 | 19.44° C | 54% | 1022.2 hPa | 0 mm | - | - | - |
| 1777726516 | 19.44° C | 51% | 1022.1 hPa | 0 mm | - | - | - |
| 1777725916 | 19.44° C | 55% | 1022.1 hPa | 0 mm | - | - | - |
| 1777725316 | 19.44° C | 58% | 1022.3 hPa | 0 mm | - | - | - |
| 1777724716 | 19.44° C | 59% | 1022.4 hPa | 0 mm | - | - | - |
| 1777724117 | 19.44° C | 56% | 1022.5 hPa | 0 mm | - | - | - |
| 1777723516 | 19.44° C | 60% | 1022.5 hPa | 0 mm | - | - | - |
| 1777722916 | 18.89° C | 58% | 1022.6 hPa | 0 mm | - | - | - |
| 1777722317 | 18.89° C | 63% | 1022.7 hPa | 0 mm | - | - | - |
| 1777722316 | 18.89° C | 63% | 1022.7 hPa | 0 mm | - | - | - |
| 1777721716 | 19.44° C | 58% | 1022.6 hPa | 0 mm | - | - | - |
| 1777721116 | 18.89° C | 64% | 1022.8 hPa | 0 mm | - | - | - |
| 1777720516 | 18.89° C | 61% | 1023 hPa | 0 mm | - | - | - |
* Rain latest hour (hover to see other rain measurements)
** Current wind speed in m/s (hover to see current wind gust speed)